Location: Brad
(46.1333°N, 22.7833°E)
Time: 19:11:20
(UTC+00:00)

Cosmos 1461 - Visible Passes

Search period start: 12 October 2024 00:00
Search period end: 22 October 2024 00:00
Orbit: 489 x 565 km, 65.0° (Epoch: 12 October)

Date Brightness Start Highest point End Pass type
(mag) Time Alt. Az. Time Alt. Az. Time Alt. Az.
12 Oct 5.3 16:44:57 10° WNW 16:47:13 15° NW 16:49:30 10° N visible
13 Oct 5.3 16:32:55 10° WNW 16:35:01 14° NW 16:37:09 10° N visible
14 Oct 5.3 16:20:49 10° WNW 16:22:46 13° NNW 16:24:43 10° N visible
15 Oct 5.3 16:08:42 10° WNW 16:10:28 13° NNW 16:12:13 10° N visible
